| time (UTC) | temp F | wind direction | speed MPH | gust MPH | rain 1hr in | rain 24hr in | rain mn in | humidity % | barometer mb |
| 20260507040616 | 56 | 278 | 0.0 | 1.0 | 0.00 | 0.43 | 0.01 | 98 | 1011.6 |
| 20260507040003 | 55 | 0 | 0.0 | 0.0 | 0.00 | 0.43 | 0.01 | 98 | 1011.6 |
| 20260507035603 | 55 | 0 | 0.0 | 0.0 | 0.00 | 0.43 | 0.01 | 98 | 1011.4 |
| 20260507035414 | 55 | 0 | 0.0 | 0.0 | 0.00 | 0.43 | 0.01 | 98 | 1011.5 |
| 20260507034803 | 54 | 0 | 0.0 | 0.0 | 0.01 | 0.43 | 0.01 | 98 | 1011.5 |
| 20260507034404 | 54 | 0 | 0.0 | 0.0 | 0.01 | 0.43 | 0.01 | 97 | 1011.5 |
| 20260507034003 | 54 | 0 | 0.0 | 0.0 | 0.01 | 0.43 | 0.01 | 97 | 1011.5 |
| 20260507033603 | 54 | 0 | 0.0 | 0.0 | 0.01 | 0.44 | 0.01 | 97 | 1011.5 |
| 20260507033203 | 54 | 0 | 0.0 | 0.0 | 0.01 | 0.44 | 0.01 | 97 | 1011.5 |
| 20260507032803 | 54 | 0 | 0.0 | 0.0 | 0.01 | 0.45 | 0.01 | 97 | 1011.2 |
| 20260507032403 | 54 | 0 | 0.0 | 0.0 | 0.01 | 0.46 | 0.01 | 97 | 1011.3 |
| 20260507032003 | 53 | 0 | 0.0 | 0.0 | 0.01 | 0.47 | 0.01 | 97 | 1011.6 |
| 20260507031813 | 53 | 0 | 0.0 | 0.0 | 0.01 | 0.48 | 0.01 | 97 | 1011.5 |
| 20260507031203 | 53 | 0 | 0.0 | 0.0 | 0.01 | 0.51 | 0.01 | 97 | 1011.4 |
| 20260507030803 | 53 | 0 | 0.0 | 0.0 | 0.01 | 0.53 | 0.01 | 97 | 1011.4 |
| 20260507030616 | 53 | 0 | 0.0 | 0.0 | 0.01 | 0.53 | 0.01 | 97 | 1011.3 |
| 20260507030003 | 54 | 0 | 0.0 | 0.0 | 0.01 | 0.54 | 0.01 | 97 | 1011.2 |
| 20260507025815 | 54 | 0 | 0.0 | 0.0 | 0.01 | 0.54 | 0.01 | 97 | 1011.4 |
| 20260507025414 | 54 | 0 | 0.0 | 0.0 | 0.01 | 0.54 | 0.01 | 97 | 1011.2 |
| 20260507024803 | 54 | 0 | 0.0 | 0.0 | 0.00 | 0.53 | 0.00 | 97 | 1011.3 |
| 20260507024403 | 54 | 0 | 0.0 | 0.0 | 0.00 | 0.53 | 0.00 | 97 | 1011.3 |
| 20260507024213 | 53 | 0 | 0.0 | 0.0 | 0.00 | 0.53 | 0.00 | 97 | 1011.4 |
| 20260507023603 | 53 | 0 | 0.0 | 0.0 | 0.00 | 0.53 | 0.00 | 97 | 1011.2 |
| 20260507023203 | 54 | 0 | 0.0 | 0.0 | 0.00 | 0.53 | 0.00 | 97 | 1011.2 |
| 20260507022803 | 54 | 0 | 0.0 | 0.0 | 0.00 | 0.53 | 0.00 | 97 | 1011.2 |
| 20260507022403 | 54 | 0 | 0.0 | 0.0 | 0.00 | 0.53 | 0.00 | 97 | 1011.2 |
| 20260507022003 | 54 | 0 | 0.0 | 0.0 | 0.00 | 0.53 | 0.00 | 97 | 1011.2 |
| 20260507021603 | 54 | 0 | 0.0 | 0.0 | 0.00 | 0.53 | 0.00 | 97 | 1011.4 |
| 20260507021203 | 54 | 0 | 0.0 | 0.0 | 0.00 | 0.53 | 0.00 | 97 | 1011.1 |
| 20260507021012 | 54 | 0 | 0.0 | 0.0 | 0.00 | 0.53 | 0.00 | 97 | 1011.2 |
| 20260507020403 | 54 | 0 | 0.0 | 0.0 | 0.00 | 0.53 | 0.00 | 97 | 1011.2 |
| 20260507020003 | 54 | 0 | 0.0 | 0.0 | 0.00 | 0.53 | 0.00 | 97 | 1011.3 |
| 20260507015603 | 55 | 0 | 0.0 | 0.0 | 0.00 | 0.53 | 0.00 | 97 | 1011.1 |
| 20260507015203 | 55 | 0 | 0.0 | 0.0 | 0.00 | 0.53 | 0.00 | 97 | 1011.2 |
| 20260507014803 | 55 | 278 | 0.0 | 1.0 | 0.00 | 0.53 | 0.00 | 97 | 1011.1 |
| 20260507014403 | 55 | 278 | 0.0 | 2.0 | 0.00 | 0.53 | 0.00 | 97 | 1011.0 |
| 20260507014003 | 55 | 278 | 0.0 | 2.0 | 0.00 | 0.53 | 0.00 | 97 | 1011.2 |
| 20260507013603 | 55 | 278 | 0.0 | 1.0 | 0.00 | 0.53 | 0.00 | 97 | 1011.0 |
| 20260507013203 | 54 | 0 | 0.0 | 0.0 | 0.00 | 0.53 | 0.00 | 97 | 1010.9 |
| 20260507013016 | 54 | 0 | 0.0 | 0.0 | 0.00 | 0.53 | 0.00 | 97 | 1011.1 |
| 20260507012403 | 55 | 0 | 0.0 | 0.0 | 0.00 | 0.53 | 0.00 | 97 | 1011.1 |
| 20260507012003 | 55 | 0 | 0.0 | 0.0 | 0.00 | 0.53 | 0.00 | 97 | 1011.0 |
| 20260507011603 | 55 | 0 | 0.0 | 0.0 | 0.00 | 0.53 | 0.00 | 97 | 1010.9 |
| 20260507011203 | 55 | 0 | 0.0 | 0.0 | 0.00 | 0.53 | 0.00 | 97 | 1011.1 |
| 20260507010803 | 56 | 0 | 0.0 | 0.0 | 0.00 | 0.53 | 0.00 | 97 | 1011.1 |
| 20260507010403 | 56 | 0 | 0.0 | 0.0 | 0.00 | 0.53 | 0.00 | 97 | 1011.2 |
| 20260507010003 | 56 | 0 | 0.0 | 0.0 | 0.00 | 0.53 | 0.00 | 97 | 1011.2 |
| 20260507005603 | 56 | 279 | 0.0 | 1.0 | 0.00 | 0.53 | 0.00 | 97 | 1011.3 |
| 20260507005203 | 56 | 279 | 0.0 | 1.0 | 0.00 | 0.53 | 0.00 | 97 | 1011.1 |
| 20260507004803 | 56 | 279 | 0.0 | 2.0 | 0.00 | 0.53 | 0.00 | 97 | 1011.3 |
| 20260507004403 | 56 | 279 | 0.0 | 2.0 | 0.00 | 0.53 | 0.00 | 97 | 1011.1 |
| 20260507004003 | 56 | 279 | 0.0 | 2.0 | 0.00 | 0.53 | 0.00 | 97 | 1011.1 |
| 20260507003603 | 56 | 0 | 0.0 | 0.0 | 0.00 | 0.53 | 0.00 | 97 | 1011.0 |
| 20260507003203 | 56 | 0 | 0.0 | 0.0 | 0.00 | 0.53 | 0.00 | 97 | 1011.2 |
| 20260507002803 | 56 | 0 | 0.0 | 0.0 | 0.00 | 0.53 | 0.00 | 97 | 1011.2 |
| 20260507002403 | 56 | 0 | 0.0 | 0.0 | 0.00 | 0.53 | 0.00 | 97 | 1011.1 |
| 20260507002003 | 57 | 0 | 0.0 | 0.0 | 0.00 | 0.53 | 0.00 | 97 | 1011.1 |
| 20260507001603 | 57 | 0 | 0.0 | 0.0 | 0.00 | 0.53 | 0.00 | 97 | 1011.0 |
| 20260507001203 | 57 | 0 | 0.0 | 0.0 | 0.00 | 0.53 | 0.00 | 97 | 1010.9 |
| 20260507000803 | 57 | 0 | 0.0 | 0.0 | 0.00 | 0.53 | 0.00 | 97 | 1011.0 |
| 20260507000405 | 56 | 0 | 0.0 | 0.0 | 0.00 | 0.53 | 0.00 | 97 | 1011.0 |
| 20260507000004 | 56 | 0 | 0.0 | 0.0 | 0.00 | 0.53 | 0.00 | 97 | 1011.1 |
| 20260506235817 | 57 | 0 | 0.0 | 0.0 | 0.00 | 0.53 | 0.00 | 97 | 1011.1 |
| 20260506235416 | 57 | 0 | 0.0 | 0.0 | 0.00 | 0.53 | 0.00 | 97 | 1011.2 |
| 20260506234803 | 57 | 0 | 0.0 | 0.0 | 0.00 | 0.53 | 0.00 | 96 | 1011.1 |
| 20260506234403 | 57 | 0 | 0.0 | 0.0 | 0.00 | 0.53 | 0.00 | 96 | 1011.3 |
| 20260506234003 | 57 | 280 | 0.0 | 2.0 | 0.00 | 0.53 | 0.00 | 96 | 1011.0 |
| 20260506233814 | 57 | 281 | 0.0 | 2.0 | 0.00 | 0.53 | 0.00 | 96 | 1011.1 |
| 20260506233203 | 57 | 282 | 0.0 | 2.0 | 0.00 | 0.53 | 0.00 | 96 | 1011.1 |
| 20260506233013 | 57 | 282 | 0.0 | 2.0 | 0.00 | 0.53 | 0.00 | 96 | 1011.2 |
| 20260506232403 | 57 | 0 | 0.0 | 0.0 | 0.00 | 0.53 | 0.00 | 96 | 1011.2 |
| 20260506232003 | 57 | 0 | 0.0 | 0.0 | 0.00 | 0.53 | 0.00 | 96 | 1011.2 |
| 20260506231816 | 58 | 0 | 0.0 | 0.0 | 0.00 | 0.53 | 0.00 | 96 | 1011.3 |
| 20260506231415 | 58 | 0 | 0.0 | 0.0 | 0.00 | 0.53 | 0.00 | 96 | 1011.1 |
| 20260506230803 | 57 | 0 | 0.0 | 0.0 | 0.00 | 0.53 | 0.00 | 96 | 1011.1 |
| 20260506230403 | 57 | 0 | 0.0 | 0.0 | 0.00 | 0.53 | 0.00 | 96 | 1011.3 |
| 20260506230003 | 57 | 0 | 0.0 | 0.0 | 0.00 | 0.53 | 0.00 | 96 | 1011.1 |
| 20260506225603 | 57 | 0 | 0.0 | 0.0 | 0.00 | 0.53 | 0.00 | 96 | 1011.0 |
| 20260506225203 | 57 | 0 | 0.0 | 0.0 | 0.00 | 0.53 | 0.00 | 96 | 1011.1 |
| 20260506224803 | 57 | 0 | 0.0 | 0.0 | 0.00 | 0.53 | 0.00 | 96 | 1011.0 |
| 20260506224403 | 57 | 0 | 0.0 | 0.0 | 0.00 | 0.53 | 0.00 | 96 | 1011.1 |
| 20260506224003 | 57 | 0 | 0.0 | 0.0 | 0.00 | 0.53 | 0.00 | 96 | 1011.1 |
| 20260506223603 | 58 | 284 | 0.0 | 2.0 | 0.00 | 0.53 | 0.00 | 96 | 1011.1 |
| 20260506223203 | 58 | 284 | 0.0 | 2.0 | 0.00 | 0.53 | 0.00 | 96 | 1011.1 |
| 20260506223013 | 58 | 284 | 0.0 | 2.0 | 0.00 | 0.53 | 0.00 | 96 | 1011.2 |
| 20260506222403 | 58 | 283 | 0.0 | 1.0 | 0.00 | 0.53 | 0.00 | 96 | 1011.1 |
| 20260506222003 | 58 | 283 | 0.0 | 1.0 | 0.00 | 0.53 | 0.00 | 96 | 1011.2 |
| 20260506221603 | 58 | 283 | 0.0 | 2.0 | 0.00 | 0.53 | 0.00 | 96 | 1011.1 |
| 20260506221203 | 57 | 283 | 0.0 | 2.0 | 0.00 | 0.53 | 0.00 | 96 | 1011.1 |
| 20260506220803 | 57 | 283 | 0.0 | 1.0 | 0.00 | 0.53 | 0.00 | 96 | 1010.9 |
| 20260506220403 | 57 | 0 | 0.0 | 0.0 | 0.00 | 0.53 | 0.00 | 96 | 1011.1 |
| 20260506220004 | 58 | 0 | 0.0 | 0.0 | 0.00 | 0.53 | 0.00 | 96 | 1011.1 |
| 20260506215603 | 58 | 0 | 0.0 | 0.0 | 0.00 | 0.53 | 0.53 | 96 | 1011.1 |
| 20260506215203 | 58 | 283 | 0.0 | 0.0 | 0.00 | 0.53 | 0.53 | 96 | 1011.1 |
| 20260506214803 | 58 | 283 | 0.0 | 1.0 | 0.00 | 0.53 | 0.53 | 96 | 1011.0 |
| 20260506214403 | 58 | 283 | 0.0 | 1.0 | 0.00 | 0.53 | 0.53 | 96 | 1011.0 |
| 20260506214003 | 58 | 284 | 0.0 | 2.0 | 0.00 | 0.53 | 0.53 | 95 | 1011.0 |
| 20260506213603 | 58 | 284 | 0.0 | 2.0 | 0.00 | 0.53 | 0.53 | 95 | 1010.9 |
| 20260506213203 | 58 | 285 | 0.0 | 2.0 | 0.00 | 0.53 | 0.53 | 95 | 1011.2 |
| 20260506212803 | 58 | 296 | 1.0 | 2.0 | 0.00 | 0.53 | 0.53 | 95 | 1010.8 |
| 20260506212403 | 58 | 302 | 1.0 | 2.0 | 0.00 | 0.53 | 0.53 | 95 | 1010.9 |
| 20260506212003 | 58 | 337 | 0.0 | 2.0 | 0.00 | 0.53 | 0.53 | 95 | 1010.9 |
| 20260506211817 | 58 | 1 | 0.0 | 1.0 | 0.00 | 0.53 | 0.53 | 95 | 1010.9 |
| 20260506211203 | 59 | 0 | 0.0 | 0.0 | 0.00 | 0.53 | 0.53 | 95 | 1010.9 |
| 20260506210803 | 59 | 0 | 0.0 | 0.0 | 0.00 | 0.53 | 0.53 | 95 | 1010.9 |
| 20260506210615 | 59 | 0 | 0.0 | 0.0 | 0.00 | 0.53 | 0.53 | 95 | 1010.8 |
| 20260506210214 | 59 | 0 | 0.0 | 0.0 | 0.00 | 0.53 | 0.53 | 95 | 1010.7 |
| 20260506205603 | 59 | 0 | 0.0 | 0.0 | 0.00 | 0.53 | 0.53 | 95 | 1010.8 |
| 20260506205203 | 59 | 0 | 0.0 | 0.0 | 0.00 | 0.53 | 0.53 | 95 | 1010.7 |
| 20260506204803 | 59 | 0 | 0.0 | 0.0 | 0.00 | 0.53 | 0.53 | 94 | 1010.7 |
| 20260506204403 | 59 | 0 | 0.0 | 0.0 | 0.00 | 0.53 | 0.53 | 94 | 1010.7 |
| 20260506204003 | 59 | 0 | 0.0 | 0.0 | 0.00 | 0.53 | 0.53 | 94 | 1010.7 |
| 20260506203816 | 59 | 0 | 0.0 | 0.0 | 0.00 | 0.53 | 0.53 | 94 | 1010.7 |
| 20260506203415 | 60 | 0 | 0.0 | 0.0 | 0.00 | 0.53 | 0.53 | 94 | 1010.7 |
| 20260506202803 | 60 | 0 | 0.0 | 0.0 | 0.00 | 0.53 | 0.53 | 93 | 1010.9 |
| 20260506202404 | 60 | 0 | 0.0 | 0.0 | 0.00 | 0.53 | 0.53 | 93 | 1010.7 |
| 20260506202003 | 60 | 0 | 0.0 | 0.0 | 0.00 | 0.53 | 0.53 | 93 | 1010.7 |
| 20260506201603 | 60 | 0 | 0.0 | 0.0 | 0.00 | 0.53 | 0.53 | 93 | 1010.6 |
| 20260506201203 | 60 | 0 | 0.0 | 0.0 | 0.00 | 0.53 | 0.53 | 93 | 1010.5 |
| 20260506200803 | 60 | 0 | 0.0 | 0.0 | 0.00 | 0.53 | 0.53 | 93 | 1010.6 |
| 20260506200403 | 61 | 0 | 0.0 | 0.0 | 0.00 | 0.53 | 0.53 | 93 | 1010.4 |
| 20260506200215 | 61 | 0 | 0.0 | 0.0 | 0.00 | 0.53 | 0.53 | 93 | 1010.6 |
| 20260506195603 | 61 | 6 | 0.0 | 2.0 | 0.00 | 0.53 | 0.53 | 93 | 1010.4 |
| 20260506195203 | 61 | 7 | 1.0 | 2.0 | 0.00 | 0.53 | 0.53 | 93 | 1010.5 |
| 20260506194803 | 61 | 7 | 1.0 | 2.0 | 0.00 | 0.53 | 0.53 | 93 | 1010.3 |
| 20260506194403 | 61 | 8 | 0.0 | 2.0 | 0.00 | 0.53 | 0.53 | 92 | 1010.3 |
| 20260506194003 | 61 | 7 | 0.0 | 1.0 | 0.00 | 0.53 | 0.53 | 92 | 1010.2 |
| 20260506193603 | 61 | 7 | 0.0 | 1.0 | 0.00 | 0.53 | 0.53 | 92 | 1010.2 |
| 20260506193203 | 61 | 7 | 0.0 | 1.0 | 0.00 | 0.53 | 0.53 | 92 | 1010.2 |
| 20260506192803 | 61 | 6 | 1.0 | 1.0 | 0.00 | 0.53 | 0.53 | 92 | 1010.1 |
| 20260506192403 | 61 | 2 | 1.0 | 3.0 | 0.00 | 0.53 | 0.53 | 92 | 1010.0 |
| 20260506192003 | 61 | 3 | 2.0 | 3.0 | 0.00 | 0.53 | 0.53 | 92 | 1010.1 |
| 20260506191814 | 62 | 3 | 2.0 | 3.0 | 0.00 | 0.53 | 0.53 | 92 | 1010.1 |
| 20260506191203 | 62 | 8 | 1.0 | 2.0 | 0.00 | 0.53 | 0.53 | 91 | 1010.1 |
| 20260506191017 | 62 | 6 | 1.0 | 3.0 | 0.00 | 0.53 | 0.53 | 91 | 1009.9 |
| 20260506190403 | 62 | 4 | 1.0 | 3.0 | 0.00 | 0.53 | 0.53 | 91 | 1009.9 |
| 20260506190004 | 62 | 6 | 1.0 | 2.0 | 0.00 | 0.53 | 0.53 | 91 | 1009.9 |
| 20260506185603 | 62 | 11 | 1.0 | 3.0 | 0.00 | 0.53 | 0.53 | 91 | 1009.7 |
| 20260506185203 | 62 | 14 | 2.0 | 3.0 | 0.00 | 0.53 | 0.53 | 90 | 1010.0 |
| 20260506184803 | 62 | 27 | 2.0 | 4.0 | 0.00 | 0.53 | 0.53 | 90 | 1009.8 |
| 20260506184403 | 62 | 34 | 2.0 | 4.0 | 0.00 | 0.53 | 0.53 | 90 | 1009.8 |
| 20260506184003 | 62 | 25 | 2.0 | 4.0 | 0.00 | 0.53 | 0.53 | 90 | 1009.7 |
| 20260506183603 | 63 | 20 | 2.0 | 4.0 | 0.00 | 0.53 | 0.53 | 90 | 1009.7 |
| 20260506183416 | 63 | 22 | 2.0 | 4.0 | 0.00 | 0.53 | 0.53 | 90 | 1009.6 |
| 20260506182803 | 63 | 26 | 3.0 | 4.0 | 0.00 | 0.53 | 0.53 | 90 | 1009.7 |
| 20260506182403 | 63 | 22 | 2.0 | 4.0 | 0.00 | 0.53 | 0.53 | 90 | 1009.6 |
| 20260506182214 | 63 | 16 | 2.0 | 4.0 | 0.00 | 0.53 | 0.53 | 90 | 1009.5 |
| 20260506181603 | 63 | 11 | 1.0 | 3.0 | 0.00 | 0.53 | 0.53 | 90 | 1009.7 |
| 20260506181203 | 63 | 39 | 1.0 | 4.0 | 0.00 | 0.53 | 0.53 | 89 | 1009.5 |
| 20260506180803 | 63 | 61 | 2.0 | 5.0 | 0.00 | 0.53 | 0.53 | 89 | 1009.4 |
| 20260506180403 | 63 | 60 | 4.0 | 6.0 | 0.00 | 0.53 | 0.53 | 88 | 1009.4 |
| 20260506180216 | 63 | 60 | 4.0 | 7.0 | 0.00 | 0.53 | 0.53 | 88 | 1009.1 |
| 20260506175816 | 63 | 58 | 4.0 | 7.0 | 0.00 | 0.53 | 0.53 | 88 | 1009.0 |
| 20260506175415 | 63 | 56 | 3.0 | 7.0 | 0.00 | 0.53 | 0.53 | 88 | 1009.0 |
| 20260506174803 | 64 | 49 | 1.0 | 3.0 | 0.00 | 0.53 | 0.53 | 87 | 1009.3 |
| 20260506174403 | 64 | 41 | 1.0 | 2.0 | 0.00 | 0.53 | 0.53 | 87 | 1009.4 |
| 20260506174003 | 64 | 35 | 1.0 | 2.0 | 0.00 | 0.53 | 0.53 | 87 | 1009.4 |
| 20260506173603 | 64 | 18 | 1.0 | 2.0 | 0.00 | 0.53 | 0.53 | 87 | 1009.3 |
| 20260506173203 | 64 | 7 | 1.0 | 2.0 | 0.00 | 0.53 | 0.53 | 87 | 1009.3 |
| 20260506172803 | 64 | 1 | 1.0 | 3.0 | 0.00 | 0.53 | 0.53 | 88 | 1009.4 |
| 20260506172403 | 64 | 5 | 2.0 | 3.0 | 0.00 | 0.53 | 0.53 | 88 | 1009.5 |
| 20260506172003 | 64 | 12 | 2.0 | 3.0 | 0.00 | 0.53 | 0.53 | 88 | 1009.5 |
| 20260506171603 | 64 | 17 | 1.0 | 3.0 | 0.00 | 0.53 | 0.53 | 88 | 1009.3 |
| 20260506171203 | 64 | 6 | 1.0 | 2.0 | 0.00 | 0.53 | 0.53 | 88 | 1009.2 |
| 20260506171013 | 64 | 3 | 2.0 | 3.0 | 0.00 | 0.53 | 0.53 | 87 | 1009.1 |
| 20260506170403 | 64 | 2 | 2.0 | 4.0 | 0.00 | 0.53 | 0.53 | 87 | 1009.0 |
| 20260506170003 | 64 | 7 | 2.0 | 4.0 | 0.00 | 0.53 | 0.53 | 87 | 1009.3 |
| 20260506165816 | 64 | 9 | 2.0 | 4.0 | 0.00 | 0.53 | 0.53 | 87 | 1009.2 |
| 20260506165203 | 64 | 41 | 1.0 | 2.0 | 0.00 | 0.53 | 0.53 | 87 | 1009.0 |
| 20260506164804 | 64 | 51 | 1.0 | 2.0 | 0.00 | 0.53 | 0.53 | 86 | 1009.1 |
| 20260506164403 | 65 | 65 | 1.0 | 2.0 | 0.00 | 0.53 | 0.53 | 85 | 1009.1 |
| 20260506164214 | 65 | 69 | 1.0 | 2.0 | 0.00 | 0.53 | 0.53 | 85 | 1009.1 |
| 20260506163603 | 65 | 62 | 2.0 | 4.0 | 0.00 | 0.53 | 0.53 | 85 | 1009.0 |
| 20260506163203 | 65 | 53 | 2.0 | 4.0 | 0.00 | 0.53 | 0.53 | 85 | 1009.2 |
| 20260506162803 | 65 | 58 | 2.0 | 4.0 | 0.00 | 0.53 | 0.53 | 84 | 1009.2 |
| 20260506162403 | 65 | 67 | 2.0 | 4.0 | 0.00 | 0.53 | 0.53 | 84 | 1009.1 |
| 20260506162003 | 65 | 77 | 2.0 | 4.0 | 0.00 | 0.53 | 0.53 | 83 | 1009.0 |
| 20260506161603 | 65 | 75 | 2.0 | 3.0 | 0.00 | 0.53 | 0.53 | 83 | 1009.2 |
| 20260506161414 | 65 | 78 | 2.0 | 3.0 | 0.00 | 0.53 | 0.53 | 83 | 1009.2 |
| 20260506160803 | 65 | 62 | 2.0 | 4.0 | 0.00 | 0.53 | 0.53 | 82 | 1009.5 |
| 20260506160403 | 65 | 67 | 2.0 | 6.0 | 0.00 | 0.53 | 0.53 | 81 | 1009.6 |
| 20260506160212 | 65 | 72 | 2.0 | 6.0 | 0.00 | 0.53 | 0.53 | 81 | 1009.4 |
| 20260506155603 | 65 | 95 | 2.0 | 6.0 | 0.00 | 0.53 | 0.53 | 81 | 1009.3 |
| 20260506155203 | 66 | 88 | 3.0 | 6.0 | 0.00 | 0.53 | 0.53 | 82 | 1009.3 |
| 20260506154803 | 65 | 83 | 3.0 | 6.0 | 0.00 | 0.53 | 0.53 | 82 | 1009.3 |
| 20260506154615 | 65 | 76 | 3.0 | 6.0 | 0.00 | 0.53 | 0.53 | 83 | 1009.5 |
| 20260506154214 | 65 | 64 | 3.0 | 6.0 | 0.00 | 0.53 | 0.53 | 86 | 1009.4 |
| 20260506153603 | 65 | 58 | 3.0 | 6.0 | 0.00 | 0.53 | 0.53 | 86 | 1009.3 |
| 20260506153203 | 65 | 68 | 3.0 | 4.0 | 0.00 | 0.53 | 0.53 | 87 | 1009.4 |
| 20260506152803 | 64 | 76 | 3.0 | 4.0 | 0.00 | 0.53 | 0.53 | 86 | 1009.3 |
| 20260506152403 | 64 | 88 | 2.0 | 4.0 | 0.00 | 0.53 | 0.53 | 87 | 1009.3 |
| 20260506152003 | 64 | 95 | 2.0 | 6.0 | 0.00 | 0.53 | 0.53 | 88 | 1009.4 |
| 20260506151603 | 64 | 88 | 3.0 | 8.0 | 0.00 | 0.53 | 0.53 | 88 | 1009.2 |
| 20260506151203 | 64 | 83 | 4.0 | 8.0 | 0.00 | 0.53 | 0.53 | 89 | 1009.3 |
| 20260506150803 | 64 | 82 | 4.0 | 6.0 | 0.00 | 0.53 | 0.53 | 88 | 1009.4 |
| 20260506150403 | 64 | 81 | 4.0 | 6.0 | 0.00 | 0.53 | 0.53 | 88 | 1009.5 |
| 20260506150003 | 64 | 67 | 4.0 | 8.0 | 0.00 | 0.53 | 0.53 | 87 | 1009.6 |
| 20260506145603 | 64 | 53 | 4.0 | 8.0 | 0.00 | 0.53 | 0.53 | 86 | 1009.3 |
| 20260506145203 | 64 | 39 | 4.0 | 8.0 | 0.00 | 0.53 | 0.53 | 85 | 1009.4 |
| 20260506144803 | 64 | 33 | 3.0 | 7.0 | 0.00 | 0.53 | 0.53 | 86 | 1009.3 |
| 20260506144403 | 64 | 40 | 3.0 | 7.0 | 0.00 | 0.53 | 0.53 | 86 | 1009.4 |
| 20260506144003 | 64 | 49 | 3.0 | 7.0 | 0.00 | 0.53 | 0.53 | 86 | 1009.5 |
| 20260506143814 | 64 | 51 | 3.0 | 7.0 | 0.00 | 0.53 | 0.53 | 86 | 1009.4 |
| 20260506143203 | 63 | 50 | 3.0 | 6.0 | 0.00 | 0.53 | 0.53 | 86 | 1009.7 |
| 20260506142803 | 63 | 51 | 3.0 | 6.0 | 0.00 | 0.53 | 0.53 | 88 | 1009.6 |
| 20260506142403 | 64 | 56 | 4.0 | 8.0 | 0.00 | 0.53 | 0.53 | 88 | 1009.5 |
| 20260506142004 | 64 | 48 | 3.0 | 8.0 | 0.00 | 0.53 | 0.53 | 90 | 1009.4 |
| 20260506141603 | 64 | 48 | 4.0 | 8.0 | 0.00 | 0.53 | 0.53 | 90 | 1009.4 |
| 20260506141203 | 63 | 50 | 4.0 | 6.0 | 0.00 | 0.53 | 0.53 | 91 | 1009.4 |
| 20260506140803 | 63 | 51 | 4.0 | 7.0 | 0.00 | 0.53 | 0.53 | 90 | 1009.5 |
| 20260506140403 | 63 | 51 | 4.0 | 7.0 | 0.00 | 0.53 | 0.53 | 91 | 1009.5 |
| 20260506140004 | 63 | 51 | 4.0 | 6.0 | 0.00 | 0.53 | 0.53 | 92 | 1009.5 |
| 20260506135603 | 63 | 47 | 4.0 | 8.0 | 0.03 | 0.53 | 0.53 | 92 | 1009.6 |
| 20260506135203 | 63 | 37 | 5.0 | 8.0 | 0.07 | 0.53 | 0.53 | 92 | 1009.6 |
| 20260506134803 | 63 | 34 | 5.0 | 7.0 | 0.14 | 0.53 | 0.53 | 92 | 1009.4 |
| 20260506134616 | 63 | 35 | 5.0 | 7.0 | 0.19 | 0.53 | 0.53 | 92 | 1009.4 |
| 20260506134003 | 62 | 48 | 5.0 | 7.0 | 0.29 | 0.53 | 0.53 | 93 | 1009.6 |
| 20260506133603 | 62 | 47 | 5.0 | 9.0 | 0.31 | 0.53 | 0.53 | 92 | 1009.5 |
| 20260506133203 | 62 | 42 | 5.0 | 9.0 | 0.35 | 0.53 | 0.53 | 93 | 1009.5 |
| 20260506132803 | 62 | 44 | 5.0 | 8.0 | 0.36 | 0.53 | 0.53 | 93 | 1009.7 |
| 20260506132403 | 62 | 45 | 5.0 | 8.0 | 0.36 | 0.53 | 0.53 | 93 | 1009.7 |
| 20260506132003 | 62 | 45 | 6.0 | 8.0 | 0.37 | 0.53 | 0.53 | 93 | 1009.9 |
| 20260506131603 | 62 | 44 | 6.0 | 11.0 | 0.37 | 0.53 | 0.53 | 93 | 1010.0 |
| 20260506131203 | 62 | 45 | 6.0 | 11.0 | 0.37 | 0.53 | 0.53 | 93 | 1009.9 |
| 20260506130803 | 62 | 46 | 5.0 | 9.0 | 0.37 | 0.53 | 0.53 | 93 | 1009.8 |
| 20260506130615 | 62 | 43 | 4.0 | 9.0 | 0.37 | 0.53 | 0.53 | 94 | 1009.8 |
| 20260506130004 | 62 | 50 | 4.0 | 7.0 | 0.37 | 0.53 | 0.53 | 93 | 1009.7 |
| 20260506125603 | 62 | 49 | 4.0 | 7.0 | 0.34 | 0.50 | 0.50 | 92 | 1009.9 |
| 20260506125413 | 62 | 52 | 3.0 | 6.0 | 0.33 | 0.49 | 0.49 | 92 | 1009.9 |
| 20260506124803 | 62 | 10 | 0.0 | 3.0 | 0.23 | 0.39 | 0.39 | 91 | 1010.1 |
| 20260506124403 | 63 | 35 | 1.0 | 3.0 | 0.14 | 0.30 | 0.30 | 91 | 1010.2 |
| 20260506124003 | 63 | 46 | 1.0 | 3.0 | 0.08 | 0.24 | 0.24 | 90 | 1010.1 |
| 20260506123816 | 63 | 49 | 1.0 | 3.0 | 0.07 | 0.23 | 0.23 | 90 | 1010.1 |
| 20260506123203 | 63 | 50 | 2.0 | 4.0 | 0.02 | 0.18 | 0.18 | 89 | 1010.1 |
| 20260506122803 | 63 | 45 | 3.0 | 5.0 | 0.01 | 0.17 | 0.17 | 89 | 1010.0 |
| 20260506122614 | 63 | 44 | 3.0 | 5.0 | 0.01 | 0.17 | 0.17 | 88 | 1010.0 |
| 20260506122003 | 64 | 44 | 4.0 | 8.0 | 0.00 | 0.16 | 0.16 | 89 | 1010.0 |
| 20260506121603 | 63 | 49 | 5.0 | 8.0 | 0.00 | 0.16 | 0.16 | 89 | 1009.9 |
| 20260506121203 | 63 | 50 | 4.0 | 8.0 | 0.00 | 0.16 | 0.16 | 90 | 1009.9 |
| 20260506121016 | 63 | 56 | 4.0 | 7.0 | 0.00 | 0.16 | 0.16 | 89 | 1010.0 |
| 20260506120616 | 63 | 71 | 5.0 | 8.0 | 0.00 | 0.16 | 0.16 | 90 | 1010.0 |
| 20260506120003 | 63 | 75 | 6.0 | 8.0 | 0.00 | 0.16 | 0.16 | 89 | 1010.1 |
| 20260506115603 | 63 | 72 | 6.0 | 9.0 | 0.00 | 0.16 | 0.16 | 89 | 1010.1 |
| 20260506115203 | 63 | 68 | 5.0 | 9.0 | 0.00 | 0.16 | 0.16 | 88 | 1010.1 |
| 20260506114803 | 63 | 61 | 5.0 | 9.0 | 0.00 | 0.16 | 0.16 | 88 | 1010.3 |
| 20260506114403 | 63 | 56 | 5.0 | 10.0 | 0.00 | 0.16 | 0.16 | 88 | 1010.3 |
| 20260506114217 | 63 | 55 | 6.0 | 10.0 | 0.00 | 0.16 | 0.16 | 88 | 1010.3 |
| 20260506113817 | 63 | 53 | 6.0 | 10.0 | 0.00 | 0.16 | 0.16 | 87 | 1010.4 |
| 20260506113203 | 63 | 50 | 5.0 | 9.0 | 0.00 | 0.16 | 0.16 | 87 | 1010.5 |
| 20260506112803 | 63 | 57 | 5.0 | 9.0 | 0.00 | 0.16 | 0.16 | 87 | 1010.5 |
| 20260506112614 | 64 | 60 | 5.0 | 9.0 | 0.00 | 0.16 | 0.16 | 86 | 1010.4 |
| 20260506112214 | 64 | 73 | 4.0 | 9.0 | 0.00 | 0.16 | 0.16 | 86 | 1010.6 |
| 20260506111603 | 63 | 72 | 5.0 | 9.0 | 0.00 | 0.16 | 0.16 | 86 | 1010.6 |
| 20260506111203 | 64 | 65 | 5.0 | 9.0 | 0.00 | 0.16 | 0.16 | 86 | 1010.6 |
| 20260506110803 | 64 | 57 | 5.0 | 9.0 | 0.00 | 0.16 | 0.16 | 86 | 1010.7 |
| 20260506110403 | 64 | 61 | 4.0 | 8.0 | 0.00 | 0.16 | 0.16 | 86 | 1010.8 |
| 20260506110003 | 63 | 72 | 4.0 | 8.0 | 0.00 | 0.16 | 0.16 | 86 | 1010.8 |
| 20260506105815 | 63 | 75 | 4.0 | 9.0 | 0.00 | 0.16 | 0.16 | 87 | 1010.5 |
| 20260506105203 | 62 | 73 | 4.0 | 9.0 | 0.00 | 0.16 | 0.16 | 88 | 1010.8 |
| 20260506104803 | 63 | 73 | 4.0 | 6.0 | 0.00 | 0.16 | 0.16 | 89 | 1011.0 |
| 20260506104403 | 63 | 76 | 4.0 | 6.0 | 0.00 | 0.16 | 0.16 | 89 | 1011.0 |
| 20260506104213 | 62 | 80 | 5.0 | 8.0 | 0.00 | 0.16 | 0.16 | 89 | 1011.0 |
| 20260506103603 | 62 | 77 | 4.0 | 8.0 | 0.00 | 0.16 | 0.16 | 87 | 1010.9 |
| 20260506103203 | 62 | 73 | 4.0 | 7.0 | 0.00 | 0.16 | 0.16 | 87 | 1010.8 |
| 20260506103016 | 62 | 72 | 4.0 | 7.0 | 0.00 | 0.17 | 0.16 | 87 | 1010.8 |
| 20260506102615 | 62 | 70 | 4.0 | 8.0 | 0.00 | 0.17 | 0.16 | 87 | 1010.8 |
| 20260506102003 | 62 | 69 | 4.0 | 8.0 | 0.01 | 0.17 | 0.16 | 86 | 1010.6 |
| 20260506101603 | 62 | 74 | 3.0 | 6.0 | 0.01 | 0.17 | 0.16 | 85 | 1011.1 |
| 20260506101203 | 63 | 83 | 2.0 | 4.0 | 0.01 | 0.17 | 0.16 | 85 | 1011.1 |
| 20260506100803 | 63 | 102 | 1.0 | 4.0 | 0.02 | 0.17 | 0.16 | 84 | 1011.2 |
| 20260506100403 | 62 | 93 | 2.0 | 6.0 | 0.02 | 0.17 | 0.16 | 86 | 1011.1 |
| 20260506095603 | 62 | 82 | 4.0 | 6.0 | 0.03 | 0.17 | 0.16 | 88 | 1011.3 |
| 20260506095203 | 62 | 77 | 3.0 | 6.0 | 0.03 | 0.17 | 0.16 | 90 | 1011.2 |
| 20260506094803 | 62 | 76 | 2.0 | 6.0 | 0.03 | 0.17 | 0.16 | 90 | 1011.3 |
| 20260506094403 | 62 | 77 | 2.0 | 6.0 | 0.03 | 0.17 | 0.16 | 92 | 1011.1 |
| 20260506094003 | 61 | 71 | 3.0 | 6.0 | 0.03 | 0.17 | 0.16 | 92 | 1011.0 |
| 20260506093813 | 61 | 74 | 3.0 | 6.0 | 0.03 | 0.17 | 0.16 | 91 | 1011.1 |
| 20260506093203 | 61 | 81 | 2.0 | 7.0 | 0.03 | 0.17 | 0.16 | 91 | 1011.1 |
| 20260506092803 | 62 | 107 | 2.0 | 7.0 | 0.03 | 0.17 | 0.16 | 90 | 1011.1 |
| 20260506092403 | 61 | 145 | 2.0 | 3.0 | 0.03 | 0.17 | 0.16 | 90 | 1011.2 |
| 20260506092003 | 61 | 142 | 2.0 | 4.0 | 0.02 | 0.16 | 0.15 | 89 | 1011.2 |
| 20260506091603 | 62 | 132 | 2.0 | 4.0 | 0.02 | 0.16 | 0.15 | 89 | 1011.3 |
| 20260506091414 | 62 | 120 | 1.0 | 4.0 | 0.02 | 0.16 | 0.15 | 89 | 1011.3 |
| 20260506090803 | 62 | 93 | 1.0 | 4.0 | 0.01 | 0.16 | 0.14 | 87 | 1011.3 |
| 20260506090403 | 62 | 92 | 2.0 | 4.0 | 0.01 | 0.16 | 0.14 | 87 | 1011.2 |
| 20260506090004 | 62 | 84 | 3.0 | 7.0 | 0.00 | 0.15 | 0.13 | 86 | 1011.4 |
| 20260506085603 | 62 | 76 | 3.0 | 7.0 | 0.00 | 0.15 | 0.13 | 86 | 1011.2 |
| 20260506085203 | 62 | 62 | 2.0 | 7.0 | 0.00 | 0.16 | 0.13 | 86 | 1011.1 |
| 20260506084803 | 62 | 67 | 2.0 | 3.0 | 0.00 | 0.17 | 0.13 | 85 | 1011.0 |
| 20260506084403 | 62 | 95 | 2.0 | 4.0 | 0.00 | 0.17 | 0.13 | 86 | 1011.0 |
| 20260506084003 | 62 | 83 | 2.0 | 4.0 | 0.00 | 0.18 | 0.13 | 87 | 1010.9 |
| 20260506083603 | 62 | 68 | 2.0 | 3.0 | 0.00 | 0.18 | 0.13 | 85 | 1011.1 |
| 20260506083203 | 62 | 42 | 2.0 | 3.0 | 0.00 | 0.19 | 0.13 | 86 | 1010.8 |
| 20260506083013 | 62 | 39 | 2.0 | 3.0 | 0.00 | 0.19 | 0.13 | 86 | 1010.8 |
| 20260506082403 | 62 | 43 | 1.0 | 3.0 | 0.00 | 0.19 | 0.13 | 86 | 1010.8 |
| 20260506082003 | 62 | 55 | 1.0 | 3.0 | 0.00 | 0.19 | 0.13 | 85 | 1010.7 |
| 20260506081603 | 62 | 150 | 1.0 | 2.0 | 0.00 | 0.19 | 0.13 | 86 | 1010.9 |
| 20260506081203 | 62 | 149 | 1.0 | 2.0 | 0.00 | 0.19 | 0.13 | 87 | 1010.7 |
| 20260506080803 | 62 | 78 | 0.0 | 2.0 | 0.00 | 0.19 | 0.13 | 88 | 1010.9 |
| 20260506080403 | 61 | 53 | 1.0 | 2.0 | 0.00 | 0.19 | 0.13 | 90 | 1010.9 |
| 20260506073203 | 60 | 44 | 1.0 | 3.0 | 0.01 | 0.19 | 0.13 | 94 | 1011.0 |
| 20260506072803 | 60 | 0 | 0.0 | 0.0 | 0.01 | 0.19 | 0.13 | 95 | 1011.0 |
| 20260506072403 | 60 | 0 | 0.0 | 0.0 | 0.01 | 0.19 | 0.13 | 95 | 1011.0 |
| 20260506072003 | 60 | 0 | 0.0 | 0.0 | 0.01 | 0.19 | 0.13 | 95 | 1011.1 |
| 20260506071603 | 60 | 0 | 0.0 | 0.0 | 0.01 | 0.19 | 0.13 | 96 | 1010.9 |
| 20260506071203 | 59 | 0 | 0.0 | 0.0 | 0.01 | 0.19 | 0.13 | 96 | 1011.1 |
| 20260506071015 | 59 | 0 | 0.0 | 0.0 | 0.01 | 0.19 | 0.13 | 96 | 1011.0 |
| 20260506070403 | 60 | 0 | 0.0 | 0.0 | 0.01 | 0.19 | 0.13 | 96 | 1011.0 |
| 20260506062403 | 58 | 17 | 1.0 | 3.0 | 0.00 | 0.18 | 0.12 | 96 | 1010.7 |
| 20260506062003 | 58 | 11 | 1.0 | 2.0 | 0.00 | 0.18 | 0.12 | 96 | 1010.8 |
| 20260506061603 | 58 | 354 | 0.0 | 2.0 | 0.00 | 0.18 | 0.12 | 96 | 1010.8 |
| 20260506061203 | 58 | 0 | 0.0 | 0.0 | 0.01 | 0.18 | 0.12 | 96 | 1010.9 |
| 20260506060803 | 58 | 0 | 0.0 | 0.0 | 0.01 | 0.18 | 0.12 | 96 | 1010.8 |
| 20260506060403 | 57 | 0 | 0.0 | 0.0 | 0.01 | 0.18 | 0.12 | 96 | 1010.8 |
| 20260506050803 | 56 | 60 | 2.0 | 3.0 | 0.00 | 0.17 | 0.11 | 96 | 1011.1 |
| 20260506050403 | 56 | 75 | 2.0 | 3.0 | 0.00 | 0.17 | 0.11 | 96 | 1011.1 |
| 20260506044803 | 56 | 228 | 0.0 | 3.0 | 0.00 | 0.17 | 0.11 | 96 | 1011.4 |
| 20260506044403 | 56 | 251 | 1.0 | 4.0 | 0.00 | 0.17 | 0.11 | 96 | 1011.3 |
| 20260506044003 | 56 | 253 | 2.0 | 4.0 | 0.00 | 0.17 | 0.11 | 96 | 1011.2 |
| 20260506043603 | 56 | 257 | 2.0 | 4.0 | 0.01 | 0.17 | 0.11 | 96 | 1011.4 |
| 20260506043203 | 56 | 269 | 1.0 | 2.0 | 0.01 | 0.17 | 0.11 | 96 | 1011.3 |
| 20260506042803 | 56 | 274 | 1.0 | 3.0 | 0.02 | 0.17 | 0.11 | 96 | 1011.2 |
| 20260506042403 | 56 | 281 | 1.0 | 3.0 | 0.03 | 0.17 | 0.11 | 96 | 1011.1 |
| 20260506042003 | 56 | 298 | 1.0 | 3.0 | 0.04 | 0.17 | 0.11 | 96 | 1010.9 |
| 20260506041603 | 56 | 349 | 0.0 | 2.0 | 0.06 | 0.17 | 0.11 | 95 | 1010.7 |
| 20260506041203 | 56 | 347 | 1.0 | 2.0 | 0.08 | 0.17 | 0.11 | 95 | 1010.9 |